TimeEDT,TemperatureF,Dew PointF,Humidity,Sea Level PressureIn,VisibilityMPH,Wind Direction,Wind SpeedMPH,Gust SpeedMPH,PrecipitationIn,Events,Conditions,WindDirDegrees,DateUTC
12:53 AM,66.9,57.0,70,30.12,10.0,Calm,Calm,-,N/A,,Clear,0,2013-08-05 04:53:00
1:53 AM,62.1,57.9,86,30.11,10.0,Calm,Calm,-,N/A,,Clear,0,2013-08-05 05:53:00
2:53 AM,62.1,57.9,86,30.10,10.0,NW,3.5,-,N/A,,Clear,320,2013-08-05 06:53:00
3:53 AM,61.0,57.0,87,30.10,10.0,Calm,Calm,-,N/A,,Clear,0,2013-08-05 07:53:00
4:53 AM,62.1,57.0,84,30.10,10.0,Calm,Calm,-,N/A,,Clear,0,2013-08-05 08:53:00
5:53 AM,61.0,57.9,90,30.10,10.0,Calm,Calm,-,N/A,,Clear,0,2013-08-05 09:53:00
6:53 AM,60.1,57.0,90,30.11,10.0,Calm,Calm,-,N/A,,Clear,0,2013-08-05 10:53:00
7:53 AM,61.0,57.9,90,30.12,10.0,Calm,Calm,-,N/A,,Clear,0,2013-08-05 11:53:00
8:53 AM,66.9,55.9,68,30.12,10.0,Calm,Calm,-,N/A,,Clear,0,2013-08-05 12:53:00
9:53 AM,71.1,57.9,63,30.11,10.0,Calm,Calm,-,N/A,,Clear,0,2013-08-05 13:53:00
10:53 AM,73.9,55.9,53,30.09,10.0,SSE,4.6,-,N/A,,Clear,160,2013-08-05 14:53:00
11:53 AM,75.9,55.0,48,30.08,10.0,SSE,5.8,-,N/A,,Clear,160,2013-08-05 15:53:00
12:53 PM,78.1,53.1,42,30.07,10.0,ESE,8.1,-,N/A,,Clear,110,2013-08-05 16:53:00
1:53 PM,80.1,53.1,39,30.05,10.0,Variable,3.5,-,N/A,,Clear,0,2013-08-05 17:53:00
2:53 PM,80.1,53.1,39,30.04,10.0,SE,4.6,-,N/A,,Clear,140,2013-08-05 18:53:00
3:53 PM,82.0,53.1,37,30.02,10.0,Variable,4.6,-,N/A,,Clear,0,2013-08-05 19:53:00
4:53 PM,82.0,53.1,37,30.01,10.0,South,3.5,-,N/A,,Clear,170,2013-08-05 20:53:00
5:53 PM,81.0,54.0,39,29.99,10.0,SSE,4.6,-,N/A,,Mostly Cloudy,150,2013-08-05 21:53:00
6:53 PM,81.0,55.0,41,29.97,10.0,SE,5.8,-,N/A,,Clear,140,2013-08-05 22:53:00
7:53 PM,80.1,55.0,42,29.95,10.0,ESE,5.8,-,N/A,,Clear,120,2013-08-05 23:53:00
8:53 PM,78.1,57.0,48,29.95,10.0,SE,4.6,-,N/A,,Overcast,140,2013-08-06 00:53:00
9:53 PM,77.0,57.0,50,29.97,10.0,SE,5.8,-,N/A,,Overcast,140,2013-08-06 01:53:00
10:53 PM,75.0,57.9,55,29.97,10.0,SSE,3.5,-,N/A,,Partly Cloudy,150,2013-08-06 02:53:00
11:53 PM,75.0,59.0,57,29.96,10.0,Calm,Calm,-,N/A,,Overcast,0,2013-08-06 03:53:00